User: anonymous   Login
Location: Unspecified
(0.0000°N, 0.0000°E)
Time: 15:25:17
(UTC+00:00)
Language:

NOSS 3-2 (C) - Orbit

View from above orbital plane
View from above orbital plane
View from above satellite
View from above satellite

Ground track
Ground track

The orbit data is extracted from the following two-line orbital elements,

1 28097U 03054C   18312.17891328 0.00000000  00000-0  00000-0 0    05
2 28097  63.4175  97.9595 0349000 358.2855   1.7145 13.40750406    08
Epoch (UTC): 08 November 2018 04:17:38
Eccentricity: 0.0349000
inclination: 63.4175°
perigee height: 845 km
apogee height: 1367 km
right ascension of ascending node: 97.9595°
argument of perigee: 358.2855°
revolutions per day: 13.40750406
mean anomaly at epoch: 1.7145°
orbit number at epoch: 0

The dashed part of the orbit path shows where the satellite is in the earth's shadow,  

DLR